| time (UTC) | temp F | wind direction | speed knots | gust knots | rain 1hr in | rain 24hr in | rain mn in | humidity % | barometer mb |
| 20260504060105 | 42 | 0 | 0.0 | 1.7 | 0.00 | 0.00 | 0.00 | 68 | 1017.3 |
| 20260504050104 | 42 | 0 | 0.0 | 1.7 | 0.00 | 0.00 | 0.00 | 69 | 1017.6 |
| 20260504045604 | 42 | 0 | 0.9 | 1.7 | 0.00 | 0.00 | 0.00 | 69 | 1017.6 |
| 20260504044604 | 42 | 0 | 0.9 | 1.7 | 0.00 | 0.00 | 0.00 | 69 | 1017.6 |
| 20260504044105 | 42 | 0 | 0.9 | 1.7 | 0.00 | 0.00 | 0.00 | 69 | 1017.6 |
| 20260504042104 | 42 | 0 | 0.9 | 1.7 | 0.00 | 0.00 | 0.00 | 70 | 1017.6 |
| 20260504040105 | 43 | 0 | 0.9 | 1.7 | 0.00 | 0.00 | 0.00 | 68 | 1017.4 |
| 20260504035104 | 43 | 0 | 0.9 | 1.7 | 0.00 | 0.00 | 0.00 | 67 | 1017.3 |
| 20260504034104 | 43 | 0 | 0.9 | 2.6 | 0.00 | 0.00 | 0.00 | 66 | 1017.3 |
| 20260504032604 | 44 | 0 | 0.9 | 2.6 | 0.00 | 0.00 | 0.00 | 65 | 1017.3 |
| 20260504032105 | 44 | 0 | 1.7 | 2.6 | 0.00 | 0.00 | 0.00 | 65 | 1017.4 |
| 20260504031604 | 44 | 0 | 0.9 | 1.7 | 0.00 | 0.00 | 0.00 | 64 | 1017.5 |
| 20260504031104 | 44 | 0 | 0.0 | 2.6 | 0.00 | 0.00 | 0.00 | 63 | 1017.5 |
| 20260504030604 | 45 | 0 | 0.9 | 1.7 | 0.00 | 0.00 | 0.00 | 64 | 1017.5 |
| 20260504030105 | 45 | 0 | 0.0 | 0.9 | 0.00 | 0.00 | 0.00 | 63 | 1017.4 |
| 20260504025604 | 45 | 0 | 0.9 | 1.7 | 0.00 | 0.00 | 0.00 | 63 | 1017.4 |
| 20260504024604 | 45 | 0 | 1.7 | 2.6 | 0.00 | 0.00 | 0.00 | 64 | 1017.2 |
| 20260504024105 | 45 | 0 | 0.9 | 1.7 | 0.00 | 0.00 | 0.00 | 63 | 1017.2 |
| 20260504023105 | 45 | 0 | 0.0 | 1.7 | 0.00 | 0.00 | 0.00 | 62 | 1017.2 |
| 20260504021605 | 46 | 328 | 1.7 | 2.6 | 0.00 | 0.00 | 0.00 | 62 | 1017.1 |
| 20260504020606 | 46 | 319 | 1.7 | 1.7 | 0.00 | 0.00 | 0.00 | 61 | 1017.0 |
| 20260504015106 | 46 | 317 | 1.7 | 1.7 | 0.00 | 0.00 | 0.00 | 60 | 1017.0 |
| 20260504014606 | 46 | 317 | 0.9 | 1.7 | 0.00 | 0.00 | 0.00 | 60 | 1017.0 |
| 20260504014106 | 47 | 317 | 0.9 | 2.6 | 0.00 | 0.00 | 0.00 | 60 | 1017.0 |
| 20260504013106 | 47 | 314 | 0.9 | 2.6 | 0.00 | 0.00 | 0.00 | 60 | 1016.8 |
| 20260504011105 | 49 | 314 | 0.9 | 1.7 | 0.00 | 0.00 | 0.00 | 57 | 1016.7 |
| 20260504005105 | 50 | 314 | 0.0 | 0.0 | 0.00 | 0.00 | 0.00 | 52 | 1016.6 |
| 20260504004606 | 51 | 314 | 0.0 | 1.7 | 0.00 | 0.00 | 0.00 | 51 | 1016.6 |
| 20260504004105 | 51 | 314 | 0.9 | 2.6 | 0.00 | 0.00 | 0.00 | 50 | 1016.7 |
| 20260504003605 | 52 | 314 | 2.6 | 2.6 | 0.00 | 0.00 | 0.00 | 48 | 1016.6 |
| 20260504003106 | 53 | 319 | 0.9 | 1.7 | 0.00 | 0.00 | 0.00 | 47 | 1016.5 |
| 20260504002605 | 54 | 319 | 0.0 | 1.7 | 0.00 | 0.00 | 0.00 | 44 | 1016.5 |
| 20260504001605 | 55 | 319 | 0.0 | 0.0 | 0.00 | 0.00 | 0.00 | 42 | 1016.4 |
| 20260504001105 | 55 | 319 | 0.0 | 0.0 | 0.00 | 0.00 | 0.00 | 41 | 1016.4 |
| 20260504000106 | 56 | 319 | 0.0 | 0.0 | 0.00 | 0.00 | 0.00 | 39 | 1016.3 |
| 20260503235605 | 56 | 319 | 0.9 | 2.6 | 0.00 | 0.00 | 0.00 | 36 | 1016.2 |
| 20260503234605 | 57 | 319 | 2.6 | 4.3 | 0.00 | 0.00 | 0.00 | 34 | 1016.1 |
| 20260503234105 | 57 | 317 | 2.6 | 4.3 | 0.00 | 0.00 | 0.00 | 34 | 1016.1 |
| 20260503233605 | 57 | 317 | 2.6 | 4.3 | 0.00 | 0.00 | 0.00 | 33 | 1016.0 |
| 20260503232605 | 58 | 313 | 2.6 | 7.0 | 0.00 | 0.00 | 0.00 | 33 | 1016.0 |
| 20260503232105 | 58 | 323 | 2.6 | 5.2 | 0.00 | 0.00 | 0.00 | 34 | 1016.1 |
| 20260503231606 | 58 | 326 | 2.6 | 5.2 | 0.00 | 0.00 | 0.00 | 32 | 1016.0 |
| 20260503230605 | 59 | 319 | 2.6 | 6.1 | 0.00 | 0.00 | 0.00 | 32 | 1015.8 |
| 20260503230106 | 59 | 327 | 4.3 | 10.4 | 0.00 | 0.00 | 0.00 | 31 | 1015.8 |
| 20260503225105 | 59 | 323 | 5.2 | 8.7 | 0.00 | 0.00 | 0.00 | 32 | 1015.8 |
| 20260503223105 | 60 | 316 | 7.0 | 11.3 | 0.00 | 0.00 | 0.00 | 31 | 1015.9 |
| 20260503222105 | 60 | 325 | 6.1 | 11.3 | 0.00 | 0.00 | 0.00 | 30 | 1015.9 |
| 20260503215605 | 61 | 312 | 4.3 | 8.7 | 0.00 | 0.00 | 0.00 | 31 | 1016.0 |
| 20260503215105 | 61 | 306 | 4.3 | 11.3 | 0.00 | 0.00 | 0.00 | 31 | 1016.0 |
| 20260503214606 | 61 | 311 | 3.5 | 10.4 | 0.00 | 0.00 | 0.00 | 33 | 1016.1 |
| 20260503214105 | 61 | 328 | 7.0 | 12.2 | 0.00 | 0.00 | 0.00 | 31 | 1016.2 |
| 20260503213105 | 60 | 309 | 5.2 | 12.2 | 0.00 | 0.00 | 0.00 | 33 | 1016.1 |
| 20260503211605 | 60 | 307 | 5.2 | 10.4 | 0.00 | 0.00 | 0.00 | 32 | 1016.1 |
| 20260503211105 | 60 | 307 | 5.2 | 11.3 | 0.00 | 0.00 | 0.00 | 33 | 1016.0 |
| 20260503210605 | 60 | 315 | 7.0 | 11.3 | 0.00 | 0.00 | 0.00 | 32 | 1016.0 |
| 20260503210106 | 60 | 314 | 2.6 | 8.7 | 0.00 | 0.00 | 0.00 | 33 | 1016.1 |
| 20260503204606 | 60 | 316 | 5.2 | 10.4 | 0.00 | 0.00 | 0.00 | 34 | 1016.1 |
| 20260503203605 | 59 | 305 | 5.2 | 12.2 | 0.00 | 0.00 | 0.00 | 32 | 1016.2 |
| 20260503203105 | 59 | 295 | 6.1 | 10.4 | 0.00 | 0.00 | 0.00 | 34 | 1016.2 |
| 20260503202605 | 58 | 328 | 5.2 | 8.7 | 0.00 | 0.00 | 0.00 | 33 | 1016.2 |
| 20260503202105 | 58 | 316 | 7.8 | 17.4 | 0.00 | 0.00 | 0.00 | 31 | 1016.3 |
| 20260503201605 | 59 | 320 | 6.1 | 13.9 | 0.00 | 0.00 | 0.00 | 31 | 1016.4 |
| 20260503201105 | 59 | 317 | 10.4 | 13.0 | 0.00 | 0.00 | 0.00 | 34 | 1016.4 |
| 20260503195105 | 59 | 311 | 6.1 | 14.8 | 0.00 | 0.00 | 0.00 | 32 | 1016.7 |
| 20260503192605 | 60 | 319 | 8.7 | 14.8 | 0.00 | 0.00 | 0.00 | 31 | 1017.0 |
| 20260503191105 | 59 | 344 | 7.8 | 14.8 | 0.00 | 0.00 | 0.00 | 29 | 1017.2 |
| 20260503185105 | 59 | 316 | 7.0 | 12.2 | 0.00 | 0.00 | 0.00 | 31 | 1017.3 |
| 20260503184605 | 59 | 310 | 4.3 | 7.8 | 0.00 | 0.00 | 0.00 | 33 | 1017.3 |
| 20260503183105 | 58 | 313 | 6.1 | 10.4 | 0.00 | 0.00 | 0.00 | 32 | 1017.5 |
| 20260503182105 | 58 | 318 | 5.2 | 8.7 | 0.00 | 0.00 | 0.00 | 33 | 1017.5 |
| 20260503175605 | 57 | 307 | 6.1 | 14.8 | 0.00 | 0.00 | 0.00 | 34 | 1017.8 |
| 20260503174605 | 57 | 322 | 7.8 | 15.6 | 0.00 | 0.00 | 0.00 | 33 | 1017.9 |
| 20260503173106 | 56 | 310 | 4.3 | 10.4 | 0.00 | 0.00 | 0.00 | 36 | 1017.9 |
| 20260503140105 | 47 | 336 | 7.0 | 12.2 | 0.00 | 0.00 | 0.00 | 57 | 1019.5 |
| 20260503131105 | 45 | 312 | 5.2 | 10.4 | 0.00 | 0.00 | 0.00 | 59 | 1019.7 |
| 20260503110604 | 37 | 316 | 0.9 | 2.6 | 0.00 | 0.00 | 0.00 | 74 | 1018.9 |
| 20260503100105 | 36 | 317 | 0.9 | 1.7 | 0.00 | 0.00 | 0.00 | 75 | 1017.9 |
| 20260503090105 | 37 | 312 | 1.7 | 2.6 | 0.00 | 0.00 | 0.00 | 75 | 1017.4 |
| 20260503081604 | 38 | 313 | 0.9 | 2.6 | 0.00 | 0.00 | 0.00 | 71 | 1017.3 |
| 20260503081105 | 38 | 313 | 1.7 | 2.6 | 0.00 | 0.00 | 0.00 | 71 | 1017.3 |
| 20260503080605 | 39 | 313 | 2.6 | 4.3 | 0.00 | 0.00 | 0.00 | 71 | 1017.3 |
| 20260503080105 | 39 | 313 | 0.9 | 2.6 | 0.00 | 0.00 | 0.00 | 71 | 1017.3 |
| 20260503072604 | 39 | 316 | 1.7 | 5.2 | 0.00 | 0.00 | 0.00 | 71 | 1016.8 |
| 20260503072104 | 39 | 312 | 1.7 | 4.3 | 0.00 | 0.00 | 0.00 | 72 | 1016.8 |
| 20260503071604 | 40 | 318 | 1.7 | 4.3 | 0.00 | 0.00 | 0.00 | 72 | 1016.8 |
| 20260503071104 | 40 | 317 | 2.6 | 5.2 | 0.00 | 0.00 | 0.00 | 72 | 1016.8 |
| 20260503070605 | 40 | 330 | 2.6 | 7.8 | 0.00 | 0.00 | 0.00 | 72 | 1016.7 |
| 20260503070105 | 40 | 322 | 4.3 | 7.0 | 0.00 | 0.00 | 0.00 | 73 | 1016.6 |